Location: Sternwarte ZA, Rosenfeld-Brittheim
(48.2889°N, 8.6789°E)
Time: 21:31:25
(UTC+02:00)

ISS - Pass Details

Date: 26 May 2017
Orbit: 402 x 409 km, 51.6° (Epoch: 25 May)

Event Time Altitude Azimuth Distance (km) Brightness Sun altitude
Rises 23:19:27 0° 257° (WSW) 2,329 0.3 -15.2°
Reaches altitude 10° 23:21:33 10° 261° (W) 1,469 -0.7 -15.4°
Maximum altitude 23:24:49 64° 344° (NNW) 457 -3.4 -15.6°
Drops below altitude 10° 23:28:06 10° 67° (ENE) 1,470 -1.0 -15.9°
Sets 23:30:12 0° 70° (ENE) 2,331 0.0 -16.0°
